sat.trackr.live / text

‹ back to catalog

HUANJING 1A (HJ-1A)

NORAD 33320 · 2008-041A

PAYLOAD ACTIVE UNKNOWN

§ Identity

Operator
Country
PRC
Launch date
2008-09-06
Launch site
TAISC
Launch vehicle
Mass (kg)
RCS (m²)
1.47

Purposes: earth_obs

External: N2YO · Heavens-Above · Gunter

§ Orbital elements

Epoch: 2026-05-25T04:09:12.532608Z

Period
97.04 min
Inclination
97.6678°
Eccentricity
0.0017977
Mean motion
14.83924756 rev/d
Perigee alt
604.4 km
Apogee alt
629.5 km
Semi-major
6,995.1 km
B*
1.1439e-4
RAAN
131.9043°
Arg perigee
210.3726°
Mean anomaly
149.6449°
Rev number
95,499

§ Raw data

HUANJING 1A (HJ-1A)1 33320U 08041A   26145.17306172  .00000901  00000+0  11439-3 0  99992 33320  97.6678 131.9043 0017977 210.3726 149.6449 14.83924756954991

JSON: /api/v1/satellites/33320 · /tle

For live sub-satellite position, see the globe view (requires WebGL).

§ Visibility from observer

Set your observer location to see the next 7 days of passes ≥ 10°. The values pass through the URL so the page stays shareable.

No JS? Fill the form by hand. The geolocation button needs JavaScript.

§ Radio — SatNOGS DB

ModeDescriptionDownlinkUplink
BPSK Telemetry 2.242 GHz

1 transmitter · refreshed weekly from db.satnogs.org